TimeCDT,TemperatureF,Dew PointF,Humidity,Sea Level PressureIn,VisibilityMPH,Wind Direction,Wind SpeedMPH,Gust SpeedMPH,PrecipitationIn,Events,Conditions,WindDirDegrees,DateUTC
12:53 AM,64.0,61.0,90,30.01,10.0,WSW,5.8,-,N/A,,Clear,240,2012-11-01 05:53:00
1:53 AM,64.0,61.0,90,30.02,10.0,WSW,5.8,-,N/A,,Clear,240,2012-11-01 06:53:00
2:53 AM,64.0,62.1,93,30.02,10.0,Calm,Calm,-,N/A,,Clear,0,2012-11-01 07:53:00
3:53 AM,63.0,61.0,93,30.02,5.0,NW,3.5,-,N/A,,Clear,320,2012-11-01 08:53:00
4:29 AM,62.6,60.8,94,30.02,1.5,Calm,Calm,-,N/A,,Clear,0,2012-11-01 09:29:00
4:53 AM,62.1,61.0,96,30.02,0.5,Calm,Calm,-,N/A,Fog,Fog,0,2012-11-01 09:53:00
4:56 AM,60.8,60.8,100,30.02,0.2,Calm,Calm,-,N/A,Fog,Fog,0,2012-11-01 09:56:00
5:28 AM,60.8,59.0,94,-9999,1.0,Calm,Calm,-,0.01,,Mist,0,2012-11-01 10:28:00
5:46 AM,60.8,59.0,94,-9999,1.0,Calm,Calm,-,0.01,,Mist,0,2012-11-01 10:46:00
5:53 AM,59.0,57.0,93,-9999,1.0,Calm,Calm,-,0.01,,Mist,0,2012-11-01 10:53:00
6:00 AM,59.0,57.2,94,-9999,2.0,Calm,Calm,-,N/A,,Partly Cloudy,0,2012-11-01 11:00:00
6:08 AM,60.8,57.2,88,-9999,3.0,Calm,Calm,-,N/A,,Partly Cloudy,0,2012-11-01 11:08:00
6:53 AM,59.0,57.0,93,-9999,3.0,Calm,Calm,-,N/A,,Clear,0,2012-11-01 11:53:00
7:26 AM,57.2,55.4,94,-9999,1.8,Calm,Calm,-,N/A,,Clear,0,2012-11-01 12:26:00
7:35 AM,57.2,57.2,100,-9999,2.0,Calm,Calm,-,N/A,,Clear,0,2012-11-01 12:35:00
7:53 AM,60.1,59.0,96,-9999,2.5,Calm,Calm,-,N/A,,Clear,0,2012-11-01 12:53:00
8:02 AM,60.8,59.0,94,-9999,3.0,Calm,Calm,-,N/A,,Clear,0,2012-11-01 13:02:00
8:53 AM,64.9,62.1,90,30.06,5.0,Calm,Calm,-,N/A,,Clear,0,2012-11-01 13:53:00
9:53 AM,70.0,64.9,84,30.08,10.0,WNW,5.8,-,N/A,,Clear,290,2012-11-01 14:53:00
10:53 AM,73.0,64.0,73,30.09,10.0,WNW,3.5,-,N/A,,Clear,300,2012-11-01 15:53:00
11:53 AM,78.1,64.0,62,30.07,10.0,North,4.6,-,N/A,,Clear,360,2012-11-01 16:53:00
12:53 PM,80.1,62.1,54,30.05,10.0,WNW,5.8,-,N/A,,Clear,300,2012-11-01 17:53:00
1:53 PM,82.0,60.1,47,30.02,10.0,North,6.9,-,N/A,,Clear,350,2012-11-01 18:53:00
2:53 PM,82.9,57.9,42,29.99,10.0,NNW,4.6,-,N/A,,Clear,330,2012-11-01 19:53:00
3:53 PM,84.0,53.1,34,29.99,10.0,NW,8.1,-,N/A,,Clear,310,2012-11-01 20:53:00
4:53 PM,82.9,54.0,37,29.98,10.0,West,8.1,-,N/A,,Clear,270,2012-11-01 21:53:00
5:53 PM,80.1,55.9,43,29.98,10.0,West,5.8,-,N/A,,Clear,270,2012-11-01 22:53:00
6:53 PM,70.0,63.0,78,29.99,10.0,Calm,Calm,-,N/A,,Clear,0,2012-11-01 23:53:00
7:53 PM,73.9,60.1,62,30.01,10.0,WSW,4.6,-,N/A,,Clear,250,2012-11-02 00:53:00
8:53 PM,71.1,62.1,73,30.02,10.0,SW,6.9,-,N/A,,Clear,230,2012-11-02 01:53:00
9:53 PM,66.0,62.1,87,30.03,10.0,Calm,Calm,-,N/A,,Clear,0,2012-11-02 02:53:00
10:53 PM,66.9,64.0,90,30.03,10.0,SW,6.9,-,N/A,,Clear,220,2012-11-02 03:53:00
11:53 PM,66.9,64.9,93,30.02,7.0,SSW,5.8,-,N/A,,Clear,210,2012-11-02 04:53:00